Overview Statistics Trail Chart Weather Telemetry Raw packets
 

This is the latest recevied weather packets stored in our database for station/object HS5AU-13. If no packets are shown the sender has not sent any weather packets the latest 10 day(s).

<< 29 30 31 32 33 34 35 >>
Time Temp. Humidity Pressure Rain* Wind** Luminosity Snow
1788152102 24.44° C 99% 1002.4 hPa 0 mm - 299 W/m² -
1788151502 24.44° C 99% 1002.8 hPa 0 mm - 233 W/m² -
1788150902 23.89° C 99% 1003 hPa 0 mm - 264 W/m² -
1788150302 23.89° C 99% 1003.6 hPa 0 mm - 188 W/m² -
1788149702 23.89° C 99% 1004.5 hPa 0 mm - 242 W/m² -
1788149102 24.44° C 99% 1005.2 hPa 0 mm - 235 W/m² -
1788148502 24.44° C 99% 1005.7 hPa 0 mm - 224 W/m² -
1788147902 23.89° C 99% 1006.2 hPa 0 mm - 237 W/m² -
1788147302 25° C 99% 1006.8 hPa 0 mm - 423 W/m² -
1788146702 24.44° C 99% 1007.1 hPa 0 mm - 604 W/m² -
1788146102 23.89° C 99% 1007.2 hPa 0 mm - 295 W/m² -
1788145502 23.89° C 99% 1007.3 hPa 0 mm - 251 W/m² -
1788144902 23.33° C 99% 1007.5 hPa 0 mm - 201 W/m² -
1788144302 23.33° C 99% 1007.5 hPa 0 mm - 178 W/m² -
1788143702 23.33° C 99% 1007.5 hPa 0 mm - 238 W/m² -
1788143102 22.78° C 99% 1007.6 hPa 0 mm - 193 W/m² -
1788142502 22.78° C 99% 1007.5 hPa 0 mm - 129 W/m² -
1788141902 22.78° C 99% 1007.5 hPa 0 mm - 134 W/m² -
1788141302 22.78° C 99% 1007.5 hPa 0 mm - 154 W/m² -
1788140702 22.22° C 99% 1007.5 hPa 0 mm - 128 W/m² -
1788140102 22.78° C 99% 1007.4 hPa 0 mm - 95 W/m² -
1788139502 22.22° C 99% 1007.3 hPa 0 mm - 97 W/m² -
1788138902 22.22° C 99% 1007.1 hPa 0 mm - 84 W/m² -
1788138302 22.22° C 99% 1007.1 hPa 0 mm - 66 W/m² -
1788137705 22.22° C 99% 1006.9 hPa 0 mm - 86 W/m² -

* Rain latest hour (hover to see other rain measurements)
** Current wind speed in m/s (hover to see current wind gust speed)